User: anonymous   Login
Location: Unspecified
(0.0000°N, 0.0000°E)
Time: 01:30:57
(UTC+00:00)
Language:

EGRS 9 - Orbit

View from above orbital plane
View from above orbital plane
View from above satellite
View from above satellite

Ground track
Ground track

The orbit data is extracted from the following two-line orbital elements,

1  2861U 67065A   18172.30579107 -.00000001 +00000-0 -12942-2 0  9995
2  2861 090.1423 307.6567 0073792 350.5926 009.3526 08.36655209557006
Epoch (UTC): 21 June 2018 07:20:20
Eccentricity: 0.0073792
inclination: 90.1423°
perigee height: 3796 km
apogee height: 3947 km
right ascension of ascending node: 307.6567°
argument of perigee: 350.5926°
revolutions per day: 8.36655209
mean anomaly at epoch: 9.3526°
orbit number at epoch: 55700

The dashed part of the orbit path shows where the satellite is in the earth's shadow,  

DLR